Starlink 35536

operational
NORAD ID: 66261 Int'l Des: 2025-245 Owner: SPXS Country: US Constellation: starlink
LEOCIRCULAR

关于 Starlink 35536

正在加载描述...

实时位置

正在加载3D地球...

即将过境

高度历史

Altitude vs Time

uPlot chart will show altitude changes over time

两行轨道根数

1 66261U 25245AD 25350.29186330 .00031738 00000-0 79947-3 0 9997
2 66261 53.1622 312.2776 0001093 105.0313 255.0813 15.39644966 8472
Epoch: Dec 16, 2025 • Age: 20 hours

当前状态

高度 455.6 km
速度 7.64 km/s
星下点 -26.98°S, 153.4°E
发射日期 Oct 29, 2025
运行时间 0.1 years
类型 internet

技术详情

分类 Payload
质量 575.00 kg
干质量 530.00 kg
总质量 575.00 kg
长度 0.30 m
直径 4.10 m
跨度 29.00 m
形状 Box + pan
制造商 SPXS
平台类型 Starlink V2MO
阶段状态 In Orbit
所有者/国家 SPXS/US

大型星座

Loading constellations...